Rush City, MN

10:55 PM CDT on April 28, 2017 (GMT -0500)
Rush City Regional

Weather History for KROS - September, 2013

Change the Weather History Date:

Saturday, September 28, 2013

  Actual Average (KCBG) Record (KCBG)
Temperature  
Mean Temperature 58 °F -  
Max Temperature 70 °F 62 °F 85 °F (1956)
Min Temperature 45 °F 39 °F 3 °F (1999)
Degree Days  
Heating Degree Days 7    
Growing Degree Days 8 (Base 50)    
Moisture  
Dew Point 53 °F    
Average Humidity 78    
Maximum Humidity 94    
Minimum Humidity 63    
Precipitation  
Precipitation 0.40 in - - ()
Sea Level Pressure  
Sea Level Pressure 29.77 in    
Wind  
Wind Speed 10 mph (South)    
Max Wind Speed 20 mph    
Max Gust Speed 25 mph    
Visibility 10 miles    
Events Rain    
Averages and records for this station are not official NWS values.
T = Trace of Precipitation, MM = Missing Value Source: NWS Daily Summary

Daily Weather History Graph

Daily Weather History Graph

Search for Another Location

Airport or City:

Trip Planner

Search our weather history database for the weather conditions in past years. The results will help you decide how hot, cold, wet, or windy it might be!

Date:

Astronomy

Sep. 28, 2013 Rise Set
Actual Time 7:06 AM CDT 6:57 PM CDT
Civil Twilight 6:37 AM CDT 7:26 PM CDT
Nautical Twilight 6:02 AM CDT 8:01 PM CDT
Astronomical Twilight 5:27 AM CDT 8:36 PM CDT
Moon 12:38 AM CDT (9/28) 3:30 PM CDT (9/28)
Length of Visible Light 12h 49m
Length of Day
11h 50m
Waning Crescent, 36% of the Moon is Illuminated
Sep 28
Waning Crescent
Oct 4
New
Oct 11
First Quarter
Oct 18
Full
Oct 26
Last Quarter

Hourly Weather History & Observations

Time (CDT) Temp. Windchill Dew Point Humidity Pressure Visibility Wind Dir Wind Speed Gust Speed Precip Events Conditions
12:15 AM 71.1 °F - 58.3 °F 64% 29.83 in 10.0 mi SSE 13.8 mph 19.6 mph N/A   Clear
12:34 AM 70.7 °F - 58.1 °F 64% 29.83 in 10.0 mi SSE 8.1 mph 16.1 mph N/A   Clear
12:55 AM 70.2 °F - 58.1 °F 65% 29.82 in 10.0 mi SSE 10.4 mph 16.1 mph N/A   Clear
1:15 AM 70.3 °F - 57.4 °F 63% 29.81 in 10.0 mi SSE 12.7 mph 20.7 mph N/A   Clear
1:34 AM 70.0 °F - 57.2 °F 64% 29.81 in 10.0 mi SSE 10.4 mph 18.4 mph N/A   Clear
1:55 AM 69.8 °F - 56.8 °F 63% 29.81 in 10.0 mi SSE 10.4 mph 19.6 mph N/A   Clear
2:15 AM 69.4 °F - 56.5 °F 63% 29.80 in 10.0 mi SSE 10.4 mph - N/A   Clear
2:34 AM 69.4 °F - 56.5 °F 63% 29.80 in 10.0 mi SSE 9.2 mph 16.1 mph N/A   Clear
2:55 AM 68.9 °F - 56.3 °F 64% 29.80 in 10.0 mi SSE 10.4 mph - N/A   Clear
3:15 AM 68.0 °F - 56.3 °F 66% 29.78 in 10.0 mi SSE 9.2 mph - N/A   Scattered Clouds
3:34 AM 67.6 °F - 56.3 °F 67% 29.78 in 10.0 mi SSE 10.4 mph - N/A   Scattered Clouds
3:55 AM 67.1 °F - 55.8 °F 67% 29.77 in 10.0 mi SSE 8.1 mph - N/A   Scattered Clouds
4:14 AM 67.3 °F - 55.8 °F 66% 29.76 in 10.0 mi SSE 10.4 mph 16.1 mph N/A   Mostly Cloudy
4:34 AM 67.3 °F - 55.8 °F 66% 29.76 in 10.0 mi SSE 10.4 mph 16.1 mph N/A   Overcast
4:55 AM 67.1 °F - 55.9 °F 67% 29.75 in 10.0 mi SSE 11.5 mph 17.3 mph N/A   Mostly Cloudy
5:14 AM 66.6 °F - 55.9 °F 69% 29.75 in 10.0 mi SSE 10.4 mph 20.7 mph N/A   Mostly Cloudy
5:35 AM 66.6 °F - 56.3 °F 69% 29.74 in 10.0 mi SE 10.4 mph 18.4 mph N/A   Mostly Cloudy
5:55 AM 66.2 °F - 56.3 °F 70% 29.74 in 10.0 mi SE 9.2 mph 16.1 mph N/A   Mostly Cloudy
6:14 AM 66.2 °F - 56.3 °F 70% 29.73 in 10.0 mi SSE 9.2 mph - N/A   Mostly Cloudy
6:35 AM 66.2 °F - 56.3 °F 70% 29.72 in 10.0 mi SSE 11.5 mph 17.3 mph N/A   Mostly Cloudy
6:55 AM 65.7 °F - 56.3 °F 72% 29.72 in 10.0 mi SSE 10.4 mph - N/A   Mostly Cloudy
7:14 AM 66.2 °F - 56.3 °F 70% 29.71 in 10.0 mi SE 12.7 mph 17.3 mph N/A   Mostly Cloudy
7:35 AM 65.8 °F - 56.3 °F 71% 29.70 in 10.0 mi SE 10.4 mph 20.7 mph N/A   Scattered Clouds
7:55 AM 65.8 °F - 56.3 °F 71% 29.69 in 10.0 mi SE 11.5 mph 18.4 mph N/A   Clear
8:14 AM 66.4 °F - 56.5 °F 70% 29.68 in 10.0 mi SE 11.5 mph 19.6 mph N/A   Scattered Clouds
8:35 AM 66.6 °F - 56.5 °F 70% 29.68 in 10.0 mi SSE 13.8 mph 23.0 mph N/A   Overcast
8:55 AM 67.1 °F - 56.8 °F 70% 29.67 in 10.0 mi SSE 15.0 mph 25.3 mph N/A   Overcast
9:14 AM 67.5 °F - 57.0 °F 69% 29.66 in 10.0 mi SSE 12.7 mph 18.4 mph N/A   Overcast
9:35 AM 67.3 °F - 57.6 °F 71% 29.66 in 10.0 mi SSE 12.7 mph 20.7 mph N/A Rain Light Rain
9:55 AM 66.2 °F - 58.5 °F 76% 29.65 in 10.0 mi South 12.7 mph 23.0 mph N/A Rain Light Rain
10:14 AM 66.2 °F - 58.6 °F 77% 29.64 in 10.0 mi SSE 16.1 mph 21.9 mph N/A Rain Light Rain
10:35 AM 65.8 °F - 58.8 °F 78% 29.63 in 10.0 mi SSE 15.0 mph 19.6 mph N/A Rain Light Rain
10:55 AM 63.9 °F - 59.7 °F 86% 29.63 in 10.0 mi South 15.0 mph 18.4 mph 0.11 in Rain Light Rain
11:14 AM 63.3 °F - 59.9 °F 89% 29.63 in 10.0 mi South 11.5 mph 20.7 mph 0.05 in Rain Light Rain
11:34 AM 63.1 °F - 60.8 °F 92% 29.63 in 10.0 mi SSE 12.7 mph 18.4 mph 0.08 in Rain Light Rain
11:55 AM 63.1 °F - 61.0 °F 93% 29.62 in 10.0 mi SSE 12.7 mph 19.6 mph 0.09 in   Overcast
12:14 PM 63.5 °F - 61.2 °F 92% 29.62 in 10.0 mi South 12.7 mph 17.3 mph 0.02 in Rain Light Rain
12:34 PM 55.8 °F - 53.2 °F 91% 29.67 in 10.0 mi WSW 19.6 mph 23.0 mph 0.03 in Rain Light Rain
12:54 PM 54.5 °F - 52.2 °F 92% 29.68 in 10.0 mi West 15.0 mph 20.7 mph 0.08 in   Overcast
1:14 PM 53.6 °F - 51.6 °F 93% 29.70 in 7.0 mi WSW 9.2 mph 19.6 mph 0.04 in Rain Light Rain
1:35 PM 53.6 °F - 51.8 °F 94% 29.69 in 10.0 mi West 10.4 mph 21.9 mph 0.09 in Rain Light Rain
1:54 PM 53.6 °F - 51.8 °F 94% 29.71 in 10.0 mi WSW 11.5 mph - 0.09 in Rain Light Rain
2:15 PM 53.8 °F - 51.6 °F 92% 29.73 in 10.0 mi West 10.4 mph 16.1 mph 0.01 in Rain Light Rain
2:35 PM 54.1 °F - 51.4 °F 91% 29.74 in 10.0 mi WSW 9.2 mph - 0.03 in   Overcast
2:54 PM 54.7 °F - 51.8 °F 90% 29.75 in 10.0 mi WSW 10.4 mph - 0.03 in   Overcast
3:15 PM 55.6 °F - 52.3 °F 89% 29.76 in 10.0 mi WSW 8.1 mph - N/A   Overcast
3:35 PM 55.4 °F - 51.3 °F 86% 29.76 in 10.0 mi WSW 10.4 mph - N/A   Overcast
3:54 PM 56.3 °F - 51.3 °F 83% 29.76 in 10.0 mi WSW 6.9 mph - N/A   Overcast
4:15 PM 55.6 °F - 51.8 °F 87% 29.78 in 10.0 mi WSW 5.8 mph - N/A   Overcast
4:34 PM 56.8 °F - 50.9 °F 80% 29.78 in 10.0 mi WSW 10.4 mph - N/A   Overcast
4:55 PM 57.2 °F - 50.5 °F 78% 29.80 in 10.0 mi WSW 8.1 mph 17.3 mph N/A   Overcast
5:15 PM 57.2 °F - 50.0 °F 77% 29.81 in 10.0 mi West 6.9 mph - N/A   Overcast
5:34 PM 57.2 °F - 50.2 °F 77% 29.81 in 10.0 mi WSW 4.6 mph - N/A   Overcast
5:55 PM 56.8 °F - 50.2 °F 78% 29.82 in 10.0 mi SW 5.8 mph - N/A   Overcast
6:15 PM 56.7 °F - 48.6 °F 74% 29.83 in 10.0 mi WSW 6.9 mph 16.1 mph N/A   Overcast
6:34 PM 56.3 °F - 47.7 °F 73% 29.84 in 10.0 mi WSW 5.8 mph - N/A   Overcast
6:55 PM 55.8 °F - 47.7 °F 74% 29.85 in 10.0 mi WSW 5.8 mph - N/A   Overcast
7:15 PM 55.4 °F - 48.2 °F 77% 29.86 in 10.0 mi WSW 4.6 mph - N/A   Overcast
7:34 PM 54.0 °F - 47.3 °F 78% 29.87 in 10.0 mi WSW 6.9 mph - N/A   Mostly Cloudy
7:55 PM 52.7 °F - 47.1 °F 81% 29.88 in 10.0 mi WSW 3.5 mph - N/A   Mostly Cloudy
8:15 PM 52.3 °F - 46.4 °F 80% 29.89 in 10.0 mi Calm Calm - N/A   Mostly Cloudy
8:34 PM 51.6 °F - 46.2 °F 82% 29.91 in 10.0 mi WSW 3.5 mph - N/A   Mostly Cloudy
8:55 PM 50.9 °F - 45.5 °F 82% 29.91 in 10.0 mi West 3.5 mph - N/A   Mostly Cloudy
9:15 PM 50.5 °F - 45.0 °F 81% 29.91 in 10.0 mi Calm Calm - N/A   Mostly Cloudy
9:34 PM 49.6 °F - 44.6 °F 83% 29.91 in 10.0 mi Calm Calm - N/A   Mostly Cloudy
9:55 PM 48.2 °F - 43.9 °F 85% 29.92 in 10.0 mi Calm Calm - N/A   Scattered Clouds
10:14 PM 47.7 °F - 43.9 °F 87% 29.91 in 10.0 mi Calm Calm - N/A   Mostly Cloudy
10:35 PM 45.9 °F - 43.2 °F 90% 29.91 in 10.0 mi Calm Calm - N/A   Mostly Cloudy
10:55 PM 45.5 °F - 43.2 °F 92% 29.91 in 10.0 mi Calm Calm - N/A   Scattered Clouds
11:14 PM 45.5 °F - 43.2 °F 92% 29.91 in 10.0 mi Calm Calm - N/A   Scattered Clouds
11:35 PM 46.4 °F 45.2 °F 43.7 °F 90% 29.91 in 10.0 mi South 3.5 mph - N/A   Mostly Cloudy
11:55 PM 45.9 °F 44.6 °F 43.2 °F 90% 29.92 in 10.0 mi South 3.5 mph - N/A   Scattered Clouds